Flag Weather past 2 weeks in Manchester, England, United Kingdom

Now
36 °F

Passing clouds.


Feels Like: 32 °F
Forecast: 37 / 46 °F
Wind: 5 mph from Southwest

Location: Manchester Airport

Current Time: Nov 24, 2014 at 8:44:59 AM

Latest Report: Nov 24, 2014 at 7:50 AM


Visibility: N/A

Pressure: 30.24 "Hg

Humidity: 93%

Dew point: 34 °F

Location of ManchesterLocation

Historic Weather in Manchester — Graph

°F

Manchester temperature yesterday

Maximum temperature yesterday: 48 °F (at 1:20 PM)
Minimum temperature yesterday: 36 °F (at 7:20 PM)
Average temperature yesterday: 43 °F

Past Weeks' High & Low Weather Summary

 TemperatureHumidityPressure
High57 °F (Nov 22, 12:50 PM)100% (Nov 9, 7:50 PM)30.30 "Hg (Nov 9, 7:50 PM)
Low36 °F (Nov 20, 9:50 PM)72% (Nov 14, 2:20 PM)29.24 "Hg (Nov 12, 12:50 AM)
Average48 °F90%29.72 "Hg
* Reported Nov 9 7:20 AM — Nov 24 7:50 AM, Manchester, Weather by CustomWeather, © 2014

Note: Actual official high and low records may vary slightly from our data, if they occured in-between our weather recording intervals... More about our weather records

Advertising

Manchester weather history for previous 24 hours

 ConditionsComfort  
Time TempWeatherWind HumidityBarometerVisibility
7:50 AM
Nov 24
36 °FPassing clouds.5 mph93%30.24 "HgN/A
7:20 AM37 °FPassing clouds.5 mph93%30.24 "HgN/A
6:50 AM37 °FPassing clouds.6 mph93%30.24 "HgN/A
6:20 AM37 °FPassing clouds.5 mph93%30.24 "HgN/A
5:50 AM37 °FPartly cloudy.5 mph93%30.24 "HgN/A
5:20 AM36 °FPassing clouds.5 mph100%30.21 "HgN/A
4:50 AM36 °FPassing clouds.3 mph100%30.21 "HgN/A
4:20 AM36 °FPartly cloudy.5 mph93%30.21 "HgN/A
3:50 AM36 °FPassing clouds.3 mph93%30.21 "HgN/A
3:20 AM36 °FClear.5 mph93%30.21 "Hg10 mi
2:50 AM36 °FClear.7 mph100%30.18 "Hg10 mi
2:20 AM36 °FPassing clouds.8 mph100%30.18 "HgN/A
1:50 AM37 °FPassing clouds.9 mph100%30.18 "HgN/A
1:20 AM37 °FPassing clouds.7 mph100%30.18 "HgN/A
12:50 AM37 °FPartly cloudy.5 mph100%30.18 "HgN/A
12:20 AM37 °FPassing clouds.3 mph100%30.18 "HgN/A
11:50 PM
Nov 23
37 °FPartly cloudy.2 mph100%30.18 "HgN/A
11:20 PM37 °FPartly cloudy.6 mph100%30.18 "HgN/A
10:50 PM36 °FPartly cloudy.6 mph100%30.15 "HgN/A
10:20 PM36 °FPassing clouds.7 mph100%30.15 "HgN/A
9:50 PM36 °FClear.6 mph100%30.15 "Hg10 mi
9:20 PM36 °FClear.6 mph100%30.12 "Hg10 mi
8:20 PM36 °FClear.9 mph100%30.12 "Hg10 mi
7:50 PM36 °FClear.6 mph93%30.12 "Hg10 mi
7:20 PM36 °FClear.3 mph93%30.12 "Hg10 mi
6:50 PM37 °FClear.3 mph93%30.09 "Hg10 mi
6:20 PM37 °FClear.3 mph100%30.09 "Hg10 mi
5:50 PM39 °FPassing clouds.2 mph93%30.09 "HgN/A
5:20 PM39 °FPassing clouds.No wind93%30.09 "HgN/A
4:50 PM43 °FPassing clouds.3 mph81%30.09 "HgN/A
4:20 PM43 °FPassing clouds.5 mph81%30.07 "HgN/A
3:50 PM45 °FPassing clouds.6 mph81%30.07 "HgN/A
3:20 PM46 °FPassing clouds.7 mph82%30.07 "HgN/A
2:50 PM46 °FPassing clouds.7 mph82%30.07 "HgN/A
2:20 PM48 °FPassing clouds.8 mph76%30.04 "HgN/A
1:50 PM48 °FPassing clouds.10 mph82%30.04 "HgN/A
1:20 PM48 °FScattered clouds.8 mph82%30.04 "HgN/A
12:50 PM46 °FPassing clouds.7 mph93%30.04 "HgN/A
12:20 PM46 °FPassing clouds.7 mph93%30.04 "HgN/A
11:50 AM46 °FPassing clouds.6 mph93%30.04 "HgN/A
11:20 AM46 °FPassing clouds.5 mph100%30.07 "HgN/A
10:50 AM46 °FScattered clouds.5 mph100%30.07 "HgN/A
10:20 AM46 °FScattered clouds.5 mph100%30.07 "HgN/A
9:50 AM46 °FPassing clouds.3 mph93%30.07 "HgN/A
9:20 AM45 °FLight fog.3 mph100%30.04 "HgN/A
8:50 AM45 °FPassing clouds.2 mph100%30.04 "HgN/A
8:20 AM45 °FPassing clouds.3 mph100%30.04 "HgN/A
Weather by CustomWeather, © 2014

See weather overviewHow to use our weather pages